Regional Weather Roundup
Issued by NWS

Home | Current Version | Previous Version | Graphics & Text | Print | Product List | Glossary On
Versions: 1 2 3 4 5 6 7 8 9 10 11 12 13 14 15 16 17 18 19 20 21 22 23 24 25 26 27 28 29 30 31 32 33 34 35 36 37 38 39 40 41 42 43 44 45 46 47 48 49 50
000
ASUS43 KOAX 261610
RWRNE

WEATHER ROUNDUP FOR NEBRASKA
NATIONAL WEATHER SERVICE OMAHA NE
1000 AM CST MON JAN 26 2015

NOTES: SATELLITE DATA IS BEING USED TO AUGMENT CLOUD COVER ABOVE
       12000 FEET.
       "FAIR" INDICATES FEW OR NO CLOUDS BELOW 12,000 FEET WITH NO
       SIGNIFICANT WEATHER AND/OR OBSTRUCTIONS TO VISIBILITY.

  * THESE STATIONS DO NOT REPORT WEATHER SUCH AS RAIN...SNOW OR FOG.

NEZ001>004-019>022-054>056-261700-
NEBRASKA PANHANDLE

CITY           SKY/WX    TMP DP  RH WIND       PRES   REMARKS
SCOTTSBLUFF    SUNNY     43  32  65 NW7       30.18R
ALLIANCE       SUNNY     44  31  60 W16       30.14R
CHADRON        SUNNY     51  32  48 W18       30.12R
KIMBALL        SUNNY     52  27  38 NW22      30.19R
SIDNEY         SUNNY     49  30  48 W12       30.19R
$$

NEZ057>060-069>072-079>082-261700-
SOUTHWEST NEBRASKA

CITY           SKY/WX    TMP DP  RH WIND       PRES   REMARKS
NORTH PLATTE   SUNNY     43  33  68 W13       30.08S
IMPERIAL       SUNNY     47  30  51 NW15      30.14R
LEXINGTON      SUNNY     46  34  63 NW22      30.04S
MCCOOK         SUNNY     50  33  52 NW12      30.10R
OGALLALA       SUNNY     51  32  47 NW16      30.13S
$$

NEZ005>010-023>029-035>040-094-261700-
NORTH CENTRAL NEBRASKA

CITY           SKY/WX    TMP DP  RH WIND       PRES   REMARKS
VALENTINE      SUNNY     45  33  63 W10       30.02R
AINSWORTH      SUNNY     47  33  58 NW12      29.99R
BROKEN BOW     SUNNY     52  34  50 NW17      29.99R
O`NEILL        SUNNY     46  37  69 NW10      29.97R
ORD            SUNNY     49  33  54 NW12      29.97R
THEDFORD       SUNNY     49  34  56 W13       30.05R
$$

NEZ041-046>049-061>064-073>077-083>087-261700-
SOUTH CENTRAL NEBRASKA

CITY           SKY/WX    TMP DP  RH WIND       PRES   REMARKS
GRAND ISLAND   SUNNY     48  34  58 W13       29.97R
AURORA         SUNNY     48  34  57 NW17G24   29.95S
HASTINGS       SUNNY     48  33  56 NW13      29.97R
HEBRON         SUNNY     49  33  53 NW13G21   29.96F
HOLDREGE       SUNNY     51  32  47 NW17G25   30.02S
KEARNEY *      SUNNY     48  34  57 NW14      30.00R
YORK           SUNNY     48  36  61 NW16      29.94F
$$

NEZ011>018-030>034-042>045-261700-
NORTHEAST NEBRASKA

CITY           SKY/WX    TMP DP  RH WIND       PRES   REMARKS
NORFOLK        SUNNY     49  36  61 NW10      29.91R
ALBION         SUNNY     47  35  63 NW17      29.93R
BLAIR          SUNNY     41  33  73 W10G17    29.87R
COLUMBUS *     SUNNY     46  34  61 NW15      29.94R
FREMONT        SUNNY     42  35  74 W12       29.89R
TEKAMAH        SUNNY     45  36  70 NW17G23   29.86F
WAYNE          SUNNY     45  37  76 NW15      29.90R
$$

NEZ050>053-065>068-078-088>093-261700-
SOUTHEAST NEBRASKA

CITY           SKY/WX    TMP DP  RH WIND       PRES   REMARKS
LINCOLN        SUNNY     47  34  60 NW14      29.92F
OMAHA EPPLEY   MOSUNNY   43  34  70 NW12      29.88S
BEATRICE       SUNNY     41  32  70 W9        29.94F
FALLS CITY     SUNNY     41  32  70 W12       29.92R
NEBRASKA CITY  SUNNY     41  31  67 W17G28    29.89S
PLATTSMOUTH    SUNNY     42  33  70 W10G20    29.89S
$$

NEZ044-045-051>053-067-261700-
OMAHA AREA

CITY           SKY/WX    TMP DP  RH WIND       PRES   REMARKS
OMAHA EPPLEY   MOSUNNY   43  34  70 NW12      29.88S
BLAIR          SUNNY     41  33  73 W10G17    29.87R
FREMONT        SUNNY     42  35  74 W12       29.89R
MILLARD        SUNNY     42  33  70 NW10      29.88F
OFFUTT AFB     SUNNY     40  33  76 W10       29.88F WCI  34
PLATTSMOUTH    SUNNY     42  33  70 W10G20    29.89S
WAHOO          FAIR      47  35  62 NW16      29.89R
$$


USA.gov is the U.S. government's official web portal to all federal, state and local government web resources and services.